This is the latest recevied weather packets stored in our database for station/object IK2ILW-4. If no packets are shown the sender has not sent any weather packets the latest 10 day(s).
| Time | Temp. | Humidity | Pressure | Rain* | Wind** | Luminosity | Snow |
|---|---|---|---|---|---|---|---|
| 1787578960 | 21.11° C | 69% | 1022.8 hPa | 0 mm | - | 496 W/m² | - |
| 1787578659 | 21.11° C | 72% | 1022.8 hPa | 0 mm | - | 501 W/m² | - |
| 1787578357 | 20.56° C | 71% | 1022.8 hPa | 0 mm | - | 204 W/m² | - |
| 1787578071 | 20.56° C | 70% | 1022.7 hPa | 0 mm | - | 272 W/m² | - |
| 1787577767 | 21.11° C | 70% | 1022.7 hPa | 0 mm | - | 271 W/m² | - |
| 1787577472 | 21.11° C | 69% | 1022.7 hPa | 0 mm | - | 657 W/m² | - |
| 1787577158 | 21.67° C | 69% | 1022.8 hPa | 0 mm | - | 318 W/m² | - |
| 1787576855 | 21.11° C | 69% | 1022.8 hPa | 0 mm | - | 547 W/m² | - |
| 1787576570 | 21.11° C | 69% | 1022.8 hPa | 0 mm | - | 744 W/m² | - |
| 1787576255 | 20.56° C | 71% | 1023 hPa | 0 mm | - | 724 W/m² | - |
| 1787575964 | 20.56° C | 72% | 1023 hPa | 0 mm | - | 626 W/m² | - |
| 1787575675 | 20.56° C | 72% | 1023 hPa | 0 mm | - | 336 W/m² | - |
| 1787575368 | 20.56° C | 73% | 1023.1 hPa | 0 mm | - | 279 W/m² | - |
| 1787575053 | 20° C | 72% | 1023.1 hPa | 0 mm | - | 230 W/m² | - |
| 1787574760 | 20° C | 72% | 1023.1 hPa | 0 mm | - | 197 W/m² | - |
| 1787574454 | 20° C | 71% | 1023.2 hPa | 0 mm | - | 225 W/m² | - |
| 1787574160 | 20° C | 72% | 1023.2 hPa | 0 mm | - | 232 W/m² | - |
| 1787573869 | 20° C | 72% | 1023.2 hPa | 0 mm | - | 253 W/m² | - |
| 1787573554 | 20° C | 73% | 1023.3 hPa | 0 mm | - | 251 W/m² | - |
| 1787573262 | 20° C | 72% | 1023.3 hPa | 0 mm | - | 214 W/m² | - |
| 1787572969 | 20° C | 71% | 1023.3 hPa | 0 mm | - | 190 W/m² | - |
| 1787572659 | 20° C | 71% | 1023.3 hPa | 0 mm | - | 185 W/m² | - |
| 1787572356 | 20° C | 71% | 1023.3 hPa | 0 mm | - | 216 W/m² | - |
| 1787572069 | 20° C | 74% | 1023.3 hPa | 0 mm | - | 195 W/m² | - |
| 1787571751 | 20° C | 73% | 1023.3 hPa | 0 mm | - | 183 W/m² | - |
* Rain since midnight (hover to see other rain measurements)
** Current wind speed in m/s (hover to see current wind gust speed)